軌道要素
Epoch 2019 Aug. 25.0 TT = JDT 2458720.5
T 2019 Sept. 5.72960 TT Rudenko
q 1.4546664 (2000.0) P Q
z -0.0005215 Peri. 157.97325 +0.92110285 +0.38824846
+/-0.0000004 Node 181.84962 +0.04815163 -0.04005988
e 1.0007586 Incl. 116.61561 +0.38633012 -0.92068362
From 1906 observations 2018 Nov. 27-2020 June 15, mean residual 0".5.
|